Regional Weather Roundup
Issued by NWS

Home | Current Version | Previous Version | Graphics & Text | Print | Product List | Glossary On
Versions: 1 2 3 4 5 6 7 8 9 10 11 12 13 14 15 16 17 18 19 20 21 22 23 24 25 26 27 28 29 30 31 32 33 34 35 36 37 38 39 40 41 42 43 44 45 46 47 48 49 50
000
ASUS43 KDTX 281710
RWRMI
MICHIGAN HOURLY REGIONAL WEATHER ROUNDUP
NATIONAL WEATHER SERVICE DETROIT/PONTIAC MI
100 PM EDT TUE JUL 28 2015

NOTE: "FAIR" INDICATES FEW OR NO CLOUDS BELOW 12,000 FEET WITH NO
SIGNIFICANT WEATHER AND/OR OBSTRUCTION TO VISIBILITY.

MIZ047>049-052>055-059>063-066>070-074>076-081>083-281800-
SOUTHEAST LOWER MICHIGAN

CITY           SKY/WX    TMP DP  RH WIND       PRES   REMARKS
ADRIAN         SUNNY     86  66  51 S3        30.05S
ALMA           SUNNY     85  64  48 S6        30.05F
ANN ARBOR      SUNNY     86  62  44 VRB3      30.05S
BAD AXE        SUNNY     87  61  42 CALM      30.05F
CARO           SUNNY     89  64  43 CALM      30.04S
DETROIT CITY   SUNNY     86  61  42 E9        30.03F
DETROIT        MOSUNNY   88  63  43 VRB7      30.04S
FLINT          SUNNY     88  64  44 S5        30.05R
GROSSE ILE     SUNNY     82  66  57 S8        30.03S
HILLSDALE      SUNNY     85  65  52 S3        30.06F
HOWELL         SUNNY     87  59  38 SW7       30.06S

CITY           SKY/WX    TMP DP  RH WIND       PRES   REMARKS
JACKSON        SUNNY     86  62  44 SE6       30.05F
LAMBERTVILLE   SUNNY     86  64  47 E5        30.04S
LANSING        SUNNY     87  62  43 SE7       30.05S
LAPEER         FAIR      88  59  37 CALM      30.05R
MASON          SUNNY     83  62  48 S7        30.06R
MONROE         SUNNY     85  65  50 E3        30.03S
MT. CLEMENS    MOSUNNY   86  62  43 SE7       30.03F
PONTIAC        MOSUNNY   87  61  41 S7        30.04F
PORT HOPE        N/A     79  71  76 N3        30.04R
PORT HURON     SUNNY     86  61  42 CALM      30.04S
TRI CITIES     SUNNY     93  64  38 MISG      30.05R HX  94
MIDLAND        FAIR      88  62  41 S8        30.03F
TROY           SUNNY     89  58  35 SE5       30.05S
SAGINAW HB     SUNNY     88  63  42 SW5       30.04S
$$
MIZ043>046-050>051-056>058-064>065-071>073-077>080-281800-
SOUTHWEST LOWER MICHIGAN

CITY           SKY/WX    TMP DP  RH WIND       PRES   REMARKS
BATTLE CREEK   SUNNY     86  65  49 S8        30.05S
BENTON HARBOR  SUNNY     87  66  49 SE9       30.01F
BIG RAPIDS     MOSUNNY   85  56  37 SW5       30.05S
COLDWATER      SUNNY     82  63  52 SE6       30.04F
FREMONT        FAIR      87  55  33 S7        30.04S
HOLLAND        MOSUNNY   87  62  43 S9        30.03S
GRAND RAPIDS   PTSUNNY   86  60  41 S9        30.04F
IONIA          FAIR      86  60  41 S8        30.04F
KALAMAZOO      SUNNY     87  65  47 SE6       30.04F
LUDINGTON      PTSUNNY   83  62  48 W9        30.04S
MARSHALL       SUNNY     85  65  50 S5        30.05S
MOUNT PLEASANT SUNNY     89  59  36 S5        30.04R
MUSKEGON       PTSUNNY   87  60  40 SW9       30.02F
SOUTH HAVEN    SUNNY     85  62  45 SE3       30.02F
$$
MIZ016>042-281800-
NORTHERN LOWER MICHIGAN

CITY           SKY/WX    TMP DP  RH WIND       PRES   REMARKS
ALPENA         SUNNY     91  60  35 VRB3      30.02F HX  90
BEAVER ISLAND  MOSUNNY   87  55  33 SW7       30.02S
BELLAIRE       MOSUNNY   91  53  28 SE5       30.00F
CADILLAC       MOSUNNY   89  62  40 SW8       30.05S
CHARLEVOIX     MOSUNNY   85  63  47 NW6       30.04F
FRANKFORT      PTSUNNY   84  64  50 SW9       30.03S
GAYLORD        PTSUNNY   88  53  30 S12       30.05F
GRAYLING       MOSUNNY   90  58  34 SW7       30.05S
HARBOR SPRINGS PTSUNNY   90  60  36 SW5       30.00F
HOUGHTON LAKE  SUNNY     88  63  43 VRB5      30.06R
MANISTEE       PTSUNNY   84  64  51 SW8       30.03S
OSCODA         SUNNY     88  61  39 E12G20    30.03F
PELLSTON       PTSUNNY   90  59  35 MISG      30.01F
ROGERS CITY    SUNNY     84  66  53 NE6       30.03F
TRAVERSE CITY  CLOUDY    92  61  35 VRB6      29.99F HX  92
$$
MIZ007>008-015-281800-
EASTERN UPPER MICHIGAN

CITY           SKY/WX    TMP DP  RH WIND       PRES   REMARKS
KINROSS        PTSUNNY   90  54  29 SW5       30.01F
MACKINAC ISLAN PTSUNNY   86  61  42 CALM      30.02S
MUNISING         N/A     85  65  51 S10       29.97F
$$
MIZ004>006-011>014-085-281800-
CENTRAL UPPER MICHIGAN

CITY           SKY/WX    TMP DP  RH WIND       PRES   REMARKS
ESCANABA       CLOUDY    81  63  54 S7        30.00S
MENOMINEE      PTSUNNY   82  63  51 SW12G22   29.98F
SAWYER-GWINN   SUNNY     82  63  51 SW21      30.00F
$$
MIZ001>003-009>011-084-281800-
WESTERN UPPER MICHIGAN

CITY           SKY/WX    TMP DP  RH WIND       PRES   REMARKS
IRON MOUNTAIN  CLOUDY    80  64  58 S9        29.98F
HOUGHTON       CLOUDY    79  64  60 SE12      29.92F
COPPER HARBOR    N/A     79  63  57 VRB6G16   29.91F
IRONWOOD       CLOUDY    75  66  73 S17G26    29.80F
$$

ABBREVIATIONS USED IN REMARKS
   TC - TEMPERATURE IN CELSIUS
  WCI - WIND CHILL INDEX
   HX - HEAT INDEX
  VSB - VISIBILITY



USA.gov is the U.S. government's official web portal to all federal, state and local government web resources and services.